COSMOS 1261 DEB, 12894

Orbit data source: Space-Track

COSMOS 1261 DEB, 12894 is space debris in HEO originally from a launch on Tue, 31 Mar 1981 UTC launched from the Plesetsk Missile And Space Complex (PKMTR). Debris objects in space refer to the collection of defunct objects orbiting the Earth. Examples of debris include non-operational satellites, rocket bodies, and fragments generated from explosions, collisions, or faulty payload assembly.

Loading next visibility...
Identifier
12894, 1981-031G
Orbit
HEO
Country
Flag of CISCIS
Related business
Manufacturer
Unknown
Mission
Spacecraft
Bus & Motor
Unknown
Mass
Unknown
Launch date (UTC)
1981-03-31 (45 years ago)
Launch vehicle
Unknown
Launch site
Plesetsk Missile And Space Complex (PKMTR)
Object type
Payload
Rocket body
Debris
Shape & HBR
Unknown shape, 1.1 m
Radar Cross Section
Medium (>0.1 m² and <1 m²)

Expand to show TLE details & history
Last TLE update: 9 hours ago

TLE from 9 hours ago
0 COSMOS 1261 DEB
1 12894U 81031G   26132.86037807  .00000548  00000-0  00000-0 0  9997
2 12894  69.6836  95.3389 5676254 350.3807 210.0459  2.00404517301055
Epoch: 2026-05-12T20:38Z
TLE epoch observation values (Epoch: 2026-05-12T20:38:56.665Z)
Latitude
-0.56382°
Longitude
95.17458°
Altitude
34,437.388 km
Speed
2.129 km/s
True Right ascension
18h 22m 09s
True Declination
0° 33' 48"
Sunlit
Object was in daylight at epoch
Visualization orbit readout
Latitude
Unknown
Longitude
Unknown
Altitude
Unknown
Speed
Unknown
Apparent Right ascension
Unknown
Apparent Declination
Unknown
Sunlit
N/A
Visualization observer readout
Local Sidereal Time
14:30:42
Azimuth
Unknown
Elevation
Unknown
Doppler factor
Unknown
Orbital elements
Apogee altitude
35,279.11 km
Perigee altitude
5,111.557 km
Semi-major axis
26,573.471 km
Eccentricity
0.56763
Inclination
69.6836°
RAAN
95.3389°
Arg. of periapsis
350.3807°
True anomaly
190.20472°
Mean anomaly
210.0459°
Eccentric anomaly
199.29787°
Mean motion
0.50104 °/min
Orbital period
718.51 mins
BSTAR
0
Loading maneuver chart data...
Computing Atmospheric mass density...
Loading historical data...
Loading historical data...
Loading historical data...
Loading historical data...
Loading historical data...
Loading historical data...
Loading historical data...

Documentation

Showing up to 5 results
|